Weather in Dzhonka

Russia / Khabarovsk Krai     49°40′23″N   136°56′36″E
temp.,
°C
wind,
m/s
gust,
m/s
humid.,
%
clouds,
%
prec.,
mm/h
press.,
hPa
HPBL,
m
21 january, fri
fri2101:00−27ssw2210097 0.0 103216
04:00−26ssw22100100 0.1 103227
07:00−25ssw2499100 0.1 103391
10:00−23ssw2497100 0.1 1034165
13:00−20sw4692100 0.1 1033432
16:00−20wsw359599 0.1 1032262
19:00−26sw1110074 0.0 10339
22:00−27ssw1110096 0.1 10329
22 january, sat
sat2201:00−28sw11100100 0.0 10329
04:00−29wsw11100100 0.1 10329
07:00−30wsw11100100 0.0 10339
10:00−28sw2210099 0.1 103361
13:00−23wsw349799 0.0 1032226
16:00−22wsw249558 0.0 1031155
19:00−27sw1110036 0.0 10319
22:00−28s1110090 0.0 10319
23 january, sun
sun2301:00−28ssw1110098 0.0 103010
04:00−29wsw11100100 0.0 103013
07:00−30wsw11100100 0.0 102912
10:00−27sw12100100 0.1 102958
13:00−23wsw239699 0.0 1028229
16:00−23wsw239449 0.0 1027146
19:00−28ssw1110044 0.0 10279
22:00−29s1110098 0.0 10279
24 january, mon
mon2401:00−30sw1110094 0.0 102711
04:00−30sw1210097 0.0 102715
07:00−31sw2210093 0.0 102717
10:00−27sw23100100 0.1 102781
13:00−23sw3596100 0.0 1026279
16:00−21w3496100 0.1 1025216
19:00−26ssw1110088 0.0 10269
22:00−26s1110099 0.1 10269
25 january, tue
tue2501:00−27wsw1110098 0.1 10269
04:00−28nw11100100 0.1 10269
07:00−29wnw0010099 0.0 10269
10:00−26wsw0010095 0.1 102644
13:00−21wsw229691 0.0 1025169
16:00−20wsw129413 0.0 1024109
19:00−26ssw1110035 0.0 10249
22:00−28s1110065 0.0 10249